Location: Rodson Ranch
(38.7188°N, 119.3202°W)
Time: 17:17:33
(UTC+00:00)

Meteor 2-5 Rocket - Pass Details

Date: 29 October 2020
Orbit: 834 x 911 km, 81.2° (Epoch: 22 November)

Event Time Altitude Azimuth Distance (km) Brightness Sun altitude
Rises 12:44:11 0° 204° (SSW) 3,415 6.6 -19.5°
Reaches altitude 10° 12:46:40 10° 209° (SSW) 2,494 5.9 -19.0°
Maximum altitude 12:52:08 48° 283° (WNW) 1,136 3.9 -18.0°
Drops below altitude 10° 12:57:45 10° 358° (N) 2,561 6.1 -16.9°
Sets 13:00:20 0° 4° (N) 3,516 6.9 -16.4°
